STARLINK-34540

Last updated on Mon Oct 20 2025 00:02:05 GMT+0000 (Coordinated Universal Time)

1 65657U 25211F 25292.25002315 -.02406227 00000+0 -60717-1 0 9994 2 65657 97.6038 334.4115 0001477 77.7353 295.6490 15.43353254 5821
UTC large
Height (km)
Speed (km/s)
/
Latitude / Longitude
Inclination (degrees)
Orbital Period (minutes)
Azimuth
Elevation
Range (km)
Doppler Factor

Next 0 passes for location: London (51.5072 / 0.1276)

Sorry there are no passes over London.